{"data":{"norad_id":50841,"intl_designator":"2022-001AQ","name":"STARLINK-3300","alt_names":[],"object_type":"PAYLOAD","status":"ACTIVE","operator":null,"country":"US","launch_date":"2022-01-06","launch_site_code":"AFETR","launch_vehicle":null,"mission":null,"orbit_class":"UNKNOWN","rcs_meters":null,"size_class":null,"mass_kg":null,"dimensions":null,"purposes":["comms"],"wikipedia_slug":null,"has_3d_model":false,"image_url":null,"decayed_at":null,"tle_current":{"epoch":"2026-05-25T03:09:48.276864Z","epoch_age_seconds":66746,"freshness":"FRESH","line1":"1 50841U 22001AQ  26145.13180876 -.00000537  00000+0 -15692-4 0  9998","line2":"2 50841  53.2134 195.9597 0000726  62.9355 297.1711 15.08834414241809","mean_motion":15.08834414,"eccentricity":7.26e-5,"inclination_deg":53.2134,"raan_deg":195.9597,"arg_perigee_deg":62.9355,"mean_anomaly_deg":297.1711,"bstar":-1.5692e-5,"rev_number":24180,"period_min":95.437908006253,"perigee_km":539.25822382824,"apogee_km":540.26270253989,"semimajor_km":6917.8974631841,"source":"CELESTRAK","updated_at":"2026-05-25T13:38:16.881708Z"}}}